Name,Date (UTC),Temp (C),RGauge (mm),SWE (mm),SD (cm)
Green Mountain,2020-09-21 00:00:00,8.7,276,3,
Green Mountain,2020-09-21 01:00:00,8.1,277,3,
Green Mountain,2020-09-21 02:00:00,7.8,276,3,
Green Mountain,2020-09-21 03:00:00,7.4,276,3,
Green Mountain,2020-09-21 04:00:00,7,276,3,
Green Mountain,2020-09-21 05:00:00,6.9,276,2,
Green Mountain,2020-09-21 06:00:00,6.5,276,2,
Green Mountain,2020-09-21 07:00:00,6.2,276,2,
Green Mountain,2020-09-21 08:00:00,6.1,276,2,
Green Mountain,2020-09-21 09:00:00,6.3,276,2,
Green Mountain,2020-09-21 10:00:00,5.9,276,2,
Green Mountain,2020-09-21 11:00:00,5.8,276,2,
Green Mountain,2020-09-21 12:00:00,5.8,276,2,
Green Mountain,2020-09-21 13:00:00,5.6,276,2,
Green Mountain,2020-09-21 14:00:00,5.7,278,1,
Green Mountain,2020-09-21 15:00:00,5.8,276,0,
Green Mountain,2020-09-21 16:00:00,7,276,0,
Green Mountain,2020-09-21 17:00:00,7.4,276,0,
Green Mountain,2020-09-21 18:00:00,8.5,276,0,
Green Mountain,2020-09-21 19:00:00,8.8,277,1,
Green Mountain,2020-09-21 20:00:00,9.4,277,1,
Green Mountain,2020-09-21 21:00:00,9.8,277,1,
Green Mountain,2020-09-21 22:00:00,10.4,277,1,
Green Mountain,2020-09-21 23:00:00,9.4,277,1,
Green Mountain,2020-09-22 00:00:00,8.2,276,2,
Green Mountain,2020-09-22 01:00:00,7.8,277,1,
Green Mountain,2020-09-22 02:00:00,6.7,277,1,
Green Mountain,2020-09-22 03:00:00,6.7,277,1,
Green Mountain,2020-09-22 04:00:00,6.8,277,1,
Green Mountain,2020-09-22 05:00:00,6.9,276,1,
Green Mountain,2020-09-22 06:00:00,6.5,277,1,
Green Mountain,2020-09-22 07:00:00,6.6,277,1,
Green Mountain,2020-09-22 08:00:00,6.3,276,1,
Green Mountain,2020-09-22 09:00:00,6,277,1,
Green Mountain,2020-09-22 10:00:00,5.9,277,1,
Green Mountain,2020-09-22 11:00:00,5.4,276,0,
Green Mountain,2020-09-22 12:00:00,6.2,276,0,
Green Mountain,2020-09-22 13:00:00,5.9,276,0,
Green Mountain,2020-09-22 14:00:00,5.7,277,0,
Green Mountain,2020-09-22 15:00:00,5.7,277,0,
Green Mountain,2020-09-22 16:00:00,6.4,277,0,
Green Mountain,2020-09-22 17:00:00,6.8,276,0,
Green Mountain,2020-09-22 18:00:00,7.7,277,0,
Green Mountain,2020-09-22 19:00:00,8.4,277,0,
Green Mountain,2020-09-22 20:00:00,9.3,277,1,
Green Mountain,2020-09-22 21:00:00,,,,
Green Mountain,2020-09-22 22:00:00,9.7,277,1,
Green Mountain,2020-09-22 23:00:00,8.4,277,2,
Green Mountain,2020-09-23 00:00:00,7.7,277,2,
Green Mountain,2020-09-23 01:00:00,7,277,1,
Green Mountain,2020-09-23 02:00:00,6.2,277,1,
Green Mountain,2020-09-23 03:00:00,6,277,1,
Green Mountain,2020-09-23 04:00:00,5.6,277,1,
Green Mountain,2020-09-23 05:00:00,5.5,277,1,
Green Mountain,2020-09-23 06:00:00,5.5,277,1,
Green Mountain,2020-09-23 07:00:00,5.1,277,1,
Green Mountain,2020-09-23 08:00:00,4.7,277,1,
Green Mountain,2020-09-23 09:00:00,4.5,276,1,
Green Mountain,2020-09-23 10:00:00,4.6,277,1,
Green Mountain,2020-09-23 11:00:00,4.4,277,1,
Green Mountain,2020-09-23 12:00:00,4.4,277,0,
Green Mountain,2020-09-23 13:00:00,3.5,278,1,
Green Mountain,2020-09-23 16:00:00,,,,
Green Mountain,2020-09-23 17:00:00,,,,
Green Mountain,2020-09-23 18:00:00,3.5,288,1,
Green Mountain,2020-09-23 19:00:00,4.1,290,1,
Green Mountain,2020-09-23 20:00:00,4.9,290,0,
Green Mountain,2020-09-23 21:00:00,4.4,291,1,
Green Mountain,2020-09-23 22:00:00,4.7,294,1,
Green Mountain,2020-09-23 23:00:00,,,,
Green Mountain,2020-09-24 00:00:00,4.1,301,1,
Green Mountain,2020-09-24 01:00:00,4.1,306,1,
Green Mountain,2020-09-24 02:00:00,3.9,308,1,
Green Mountain,2020-09-24 03:00:00,3.6,312,1,
Green Mountain,2020-09-24 04:00:00,3.7,317,1,
Green Mountain,2020-09-24 05:00:00,4.1,317,1,
Green Mountain,2020-09-24 06:00:00,3.7,317,1,
Green Mountain,2020-09-24 07:00:00,2.9,322,1,
Green Mountain,2020-09-24 08:00:00,2.9,322,1,
Green Mountain,2020-09-24 09:00:00,3,323,1,
Green Mountain,2020-09-24 10:00:00,2.7,323,1,
Green Mountain,2020-09-24 11:00:00,2.5,325,1,
Green Mountain,2020-09-24 12:00:00,2.6,328,1,
Green Mountain,2020-09-24 13:00:00,2.5,329,1,
Green Mountain,2020-09-24 14:00:00,2.7,330,1,
Green Mountain,2020-09-24 15:00:00,2.6,330,1,
Green Mountain,2020-09-24 16:00:00,2.5,330,0,
Green Mountain,2020-09-24 17:00:00,3,331,0,
Green Mountain,2020-09-24 18:00:00,2.8,331,1,
Green Mountain,2020-09-24 19:00:00,4.4,331,0,
Green Mountain,2020-09-24 20:00:00,5.1,331,0,
Green Mountain,2020-09-24 21:00:00,3.1,331,1,
Green Mountain,2020-09-24 22:00:00,4.3,332,1,
Green Mountain,2020-09-24 23:00:00,3.6,333,1,
Green Mountain,2020-09-25 00:00:00,3,333,1,
Green Mountain,2020-09-25 01:00:00,3,334,1,
Green Mountain,2020-09-25 02:00:00,2.8,336,1,
Green Mountain,2020-09-25 03:00:00,2.6,336,1,
Green Mountain,2020-09-25 04:00:00,2.8,339,1,
Green Mountain,2020-09-25 05:00:00,2.8,338,1,
Green Mountain,2020-09-25 06:00:00,3,339,1,
Green Mountain,2020-09-25 07:00:00,2.5,340,1,
Green Mountain,2020-09-25 08:00:00,2.8,341,1,
Green Mountain,2020-09-25 09:00:00,2.5,341,1,
Green Mountain,2020-09-25 10:00:00,2.6,342,1,
Green Mountain,2020-09-25 11:00:00,2.5,343,1,
Green Mountain,2020-09-25 12:00:00,2.6,343,1,
Green Mountain,2020-09-25 13:00:00,2.2,344,1,
Green Mountain,2020-09-25 14:00:00,1.8,345,1,
Green Mountain,2020-09-25 15:00:00,1.4,347,1,
Green Mountain,2020-09-25 16:00:00,1,349,1,
Green Mountain,2020-09-25 17:00:00,2.5,350,1,
Green Mountain,2020-09-25 18:00:00,2.1,352,1,
Green Mountain,2020-09-25 19:00:00,2.6,357,1,
Green Mountain,2020-09-25 20:00:00,3.5,357,0,
Green Mountain,2020-09-25 21:00:00,3.1,358,1,
Green Mountain,2020-09-25 22:00:00,4.1,358,1,
Green Mountain,2020-09-25 23:00:00,4.9,358,1,
Green Mountain,2020-09-26 00:00:00,4.1,358,1,
Green Mountain,2020-09-26 01:00:00,3,357,1,
Green Mountain,2020-09-26 02:00:00,2,357,1,
Green Mountain,2020-09-26 03:00:00,1.7,357,1,
Green Mountain,2020-09-26 04:00:00,1.9,357,1,
Green Mountain,2020-09-26 05:00:00,1.3,357,0,
Green Mountain,2020-09-26 06:00:00,0.9,357,0,
Green Mountain,2020-09-26 07:00:00,0.5,357,0,
Green Mountain,2020-09-26 08:00:00,1,357,0,
Green Mountain,2020-09-26 09:00:00,1.1,357,0,
Green Mountain,2020-09-26 10:00:00,0.7,357,0,
Green Mountain,2020-09-26 11:00:00,0.7,357,0,
Green Mountain,2020-09-26 12:00:00,0.4,357,0,
Green Mountain,2020-09-26 13:00:00,0.7,357,0,
Green Mountain,2020-09-26 14:00:00,0.9,357,0,
Green Mountain,2020-09-26 15:00:00,0.5,358,0,
Green Mountain,2020-09-26 16:00:00,1.2,358,0,
Green Mountain,2020-09-26 17:00:00,1,358,0,
Green Mountain,2020-09-26 18:00:00,1.2,358,0,
Green Mountain,2020-09-26 19:00:00,1.8,358,0,
Green Mountain,2020-09-26 20:00:00,2.2,359,0,
Green Mountain,2020-09-26 21:00:00,3.6,359,0,
Green Mountain,2020-09-26 22:00:00,3.8,359,0,
Green Mountain,2020-09-26 23:00:00,2.2,359,1,
Green Mountain,2020-09-27 00:00:00,2.2,359,1,
Green Mountain,2020-09-27 01:00:00,2.1,360,1,
Green Mountain,2020-09-27 02:00:00,1.7,359,1,
Green Mountain,2020-09-27 03:00:00,1.8,359,1,
Green Mountain,2020-09-27 04:00:00,1.2,359,1,
Green Mountain,2020-09-27 05:00:00,1.3,359,1,
Green Mountain,2020-09-27 06:00:00,0.9,359,1,
Green Mountain,2020-09-27 07:00:00,0.3,359,0,
Green Mountain,2020-09-27 08:00:00,0.5,359,0,
Green Mountain,2020-09-27 09:00:00,0.5,359,0,
Green Mountain,2020-09-27 10:00:00,0.4,359,0,
Green Mountain,2020-09-27 11:00:00,-0.1,359,,
Green Mountain,2020-09-27 12:00:00,-0.6,359,,
Green Mountain,2020-09-27 13:00:00,0,359,,
Green Mountain,2020-09-27 14:00:00,0.5,359,,
Green Mountain,2020-09-27 15:00:00,0.6,359,,
Green Mountain,2020-09-27 16:00:00,1.8,359,,
Green Mountain,2020-09-27 17:00:00,2.8,359,,
Green Mountain,2020-09-27 18:00:00,5.3,359,,
Green Mountain,2020-09-27 19:00:00,4.3,360,0,
Green Mountain,2020-09-27 20:00:00,5.4,360,0,
Green Mountain,2020-09-27 21:00:00,5.4,360,1,
Green Mountain,2020-09-27 22:00:00,6.4,360,1,
Green Mountain,2020-09-27 23:00:00,5.9,360,1,
Green Mountain,2020-09-28 00:00:00,6,360,1,
Green Mountain,2020-09-28 01:00:00,5.3,360,1,
Green Mountain,2020-09-28 02:00:00,5.4,360,1,
Green Mountain,2020-09-28 03:00:00,6.4,360,1,
Green Mountain,2020-09-28 04:00:00,7.3,360,1,
Green Mountain,2020-09-28 05:00:00,8.4,360,1,
Green Mountain,2020-09-28 06:00:00,8.2,361,1,
Green Mountain,2020-09-28 07:00:00,8.8,360,1,
Green Mountain,2020-09-28 08:00:00,8.5,360,1,
Green Mountain,2020-09-28 09:00:00,9,360,1,
Green Mountain,2020-09-28 10:00:00,11.7,361,1,
Green Mountain,2020-09-28 11:00:00,12.2,360,1,
Green Mountain,2020-09-28 12:00:00,,,1,
Green Mountain,2020-09-28 13:00:00,,,,
